Flag for Russia Weather past 2 weeks in Saint-Petersburg, Russia

Now
28 °F

Snow flurries. Overcast.


Feels Like: 20 °F
Forecast: 26 / 29 °F
Wind: 8 mph from Southwest

Location: St. Petersburg

Current Time: Dec 21, 2014 at 9:47:37 PM

Latest Report: Dec 21, 2014 at 9:30 PM


Visibility: 1 mi

Pressure: 29.30 "Hg

Humidity: 93%

Dew point: 27 °F

Location of Saint-PetersburgLocation

Historic Weather in Saint-Petersburg — Graph

°F

Saint-Petersburg temperature yesterday

Maximum temperature yesterday: 37 °F (at 12:00 AM)
Minimum temperature yesterday: 36 °F (at 5:30 AM)
Average temperature yesterday: 37 °F

Past Weeks' High & Low Weather Summary

 TemperatureHumidityPressure
High37 °F (Dec 9, 2:30 PM)100% (Dec 6, 9:30 PM)30.18 "Hg (Dec 6, 9:30 PM)
Low27 °F (Dec 21, 5:30 PM)75% (Dec 15, 8:00 PM)28.85 "Hg (Dec 13, 1:30 PM)
Average34 °F90%29.63 "Hg
* Reported Dec 6 8:00 PM — Dec 21 8:30 PM, Saint-Petersburg, Weather by CustomWeather, © 2014

Note: Actual official high and low records may vary slightly from our data, if they occured in-between our weather recording intervals... More about our weather records

Advertising

Saint-Petersburg weather history for previous 24 hours

 ConditionsComfort  
Time TempWeatherWind HumidityBarometerVisibility
8:30 PM
Dec 21
28 °FSnow showers. Mostly cloudy.10 mph93%29.30 "Hg1 mi
8:00 PM28 °FSnow flurries. Mostly cloudy.8 mph86%29.30 "HgN/A
7:30 PM28 °FSnow flurries. Mostly cloudy.10 mph86%29.30 "HgN/A
7:00 PM28 °FPassing clouds.13 mph86%29.30 "HgN/A
6:30 PM28 °FPassing clouds.10 mph86%29.30 "HgN/A
6:00 PM28 °FPassing clouds.10 mph86%29.30 "HgN/A
5:30 PM27 °FPassing clouds.8 mph86%29.30 "HgN/A
5:00 PM28 °FPartly cloudy.10 mph86%29.30 "HgN/A
4:30 PM28 °FBroken clouds.13 mph86%29.30 "HgN/A
4:00 PM30 °FBroken clouds.13 mph86%29.30 "HgN/A
3:30 PM32 °FMostly cloudy.10 mph87%29.27 "HgN/A
3:00 PM32 °FMostly cloudy.10 mph87%29.27 "HgN/A
2:30 PM32 °FBroken clouds.13 mph87%29.27 "HgN/A
2:00 PM32 °FBroken clouds.10 mph93%29.27 "HgN/A
1:30 PM32 °FBroken clouds.13 mph87%29.27 "HgN/A
1:00 PM32 °FCloudy.13 mph93%29.27 "HgN/A
12:30 PM32 °FSnow flurries. Cloudy.15 mph93%29.24 "HgN/A
12:00 PM32 °FSnow flurries. Cloudy.13 mph93%29.27 "Hg4 mi
11:30 AM32 °FSprinkles. Cloudy.10 mph93%29.24 "HgN/A
11:00 AM32 °FCloudy.10 mph93%29.24 "HgN/A
10:30 AM32 °FOvercast.13 mph93%29.24 "HgN/A
10:00 AM32 °FOvercast.10 mph93%29.24 "HgN/A
9:30 AM32 °FSnow flurries. Overcast.10 mph93%29.24 "HgN/A
9:00 AM32 °FSnow flurries. Overcast.13 mph93%29.21 "Hg4 mi
8:30 AM32 °FMostly cloudy.10 mph100%29.21 "HgN/A
8:00 AM32 °FMostly cloudy.10 mph100%29.21 "HgN/A
7:30 AM32 °FMostly cloudy.6 mph100%29.21 "HgN/A
7:00 AM32 °FMostly cloudy.6 mph100%29.18 "HgN/A
6:30 AM32 °FSnow showers. Mostly cloudy.8 mph100%29.18 "Hg1 mi
5:30 AM34 °FPassing clouds.6 mph87%29.18 "HgN/A
5:00 AM34 °FPassing clouds.8 mph87%29.18 "HgN/A
4:30 AM34 °FLight snow. Mostly cloudy.8 mph87%29.18 "HgN/A
4:00 AM34 °FPassing clouds.6 mph87%29.18 "HgN/A
3:30 AM34 °FPassing clouds.6 mph87%29.18 "HgN/A
3:00 AM34 °FPassing clouds.3 mph93%29.18 "HgN/A
2:30 AM34 °FPassing clouds.6 mph93%29.15 "HgN/A
2:00 AM34 °FPassing clouds.6 mph93%29.15 "HgN/A
1:30 AM34 °FMostly cloudy.3 mph93%29.15 "HgN/A
1:00 AM34 °FMostly cloudy.6 mph93%29.15 "HgN/A
12:30 AM34 °FSprinkles. Mostly cloudy.8 mph93%29.15 "Hg4 mi
12:00 AM36 °FSprinkles. Overcast.6 mph87%29.15 "HgN/A
11:30 PM
Dec 20
36 °FOvercast.6 mph87%29.12 "HgN/A
11:00 PM36 °FOvercast.3 mph87%29.12 "HgN/A
10:30 PM36 °FOvercast.3 mph93%29.12 "HgN/A
10:00 PM36 °FOvercast.3 mph87%29.12 "HgN/A
9:30 PM36 °FSprinkles. Overcast.6 mph93%29.12 "HgN/A
9:00 PM36 °FSprinkles. Overcast.10 mph93%29.12 "Hg5 mi
Weather by CustomWeather, © 2014

See weather overviewHow to use our weather pages